Alamogordo, NM

1:18 AM MST on February 23, 2017 (GMT -0700)
Alamogordo-White Sands Regional

Weather History for KALM - December, 2013

Change the Weather History Date:

Friday, December 20, 2013

  Actual Average Record
Temperature  
Mean Temperature 48 °F -  
Max Temperature 55 °F 58 °F 70 °F (1981)
Min Temperature 41 °F 30 °F -11 °F (1997)
Degree Days  
Heating Degree Days 16    
Moisture  
Dew Point 34 °F    
Average Humidity 61    
Maximum Humidity 100    
Minimum Humidity 30    
Precipitation  
Precipitation 0.18 in - - ()
Sea Level Pressure  
Sea Level Pressure 29.74 in    
Wind  
Wind Speed 10 mph (SSE)    
Max Wind Speed 23 mph    
Max Gust Speed 29 mph    
Visibility 10 miles    
Events Rain , Thunderstorm    
Averages and records for this station are not official NWS values.
T = Trace of Precipitation, MM = Missing Value Source: NWS Daily Summary

Daily Weather History Graph

Daily Weather History Graph

Search for Another Location

Airport or City:

Trip Planner

Search our weather history database for the weather conditions in past years. The results will help you decide how hot, cold, wet, or windy it might be!

Date:

Astronomy

Dec. 20, 2013 Rise Set
Actual Time 7:02 AM MST 5:01 PM MST
Civil Twilight 6:34 AM MST 5:28 PM MST
Nautical Twilight 6:03 AM MST 5:59 PM MST
Astronomical Twilight 5:33 AM MST 6:29 PM MST
Moon 8:15 PM MST (12/20) 9:05 AM MST (12/20)
Length of Visible Light 10h 53m
Length of Day
9h 59m
Waning Gibbous, 90% of the Moon is Illuminated
Dec 20
Waning Gibbous
Dec 25
Last Quarter
Jan 1
New
Jan 7
First Quarter
Jan 15
Full

Hourly Weather History & Observations

Time (MST) Temp. Windchill Dew Point Humidity Pressure Visibility Wind Dir Wind Speed Gust Speed Precip Events Conditions
12:15 AM 46.4 °F 41.9 °F 19.4 °F 34% 29.82 in 10.0 mi SE 9.2 mph - N/A   Partly Cloudy
12:35 AM 48.2 °F - 19.4 °F 32% 29.81 in 10.0 mi SSE 6.9 mph - N/A   Scattered Clouds
12:55 AM 48.2 °F - 21.2 °F 34% 29.81 in 10.0 mi SSE 8.1 mph - N/A   Overcast
1:15 AM 48.2 °F - 21.2 °F 34% 29.81 in 10.0 mi SSE 8.1 mph - N/A   Overcast
1:35 AM 48.2 °F - 19.4 °F 32% 29.81 in 10.0 mi SSE 5.8 mph - N/A   Mostly Cloudy
1:55 AM 48.2 °F - 19.4 °F 32% 29.80 in 10.0 mi SE 6.9 mph - N/A   Mostly Cloudy
2:15 AM 48.2 °F - 19.4 °F 32% 29.80 in 10.0 mi South 4.6 mph - N/A   Scattered Clouds
2:35 AM 48.2 °F - 17.6 °F 30% 29.80 in 10.0 mi SSE 3.5 mph - N/A   Clear
2:55 AM 46.4 °F 44.3 °F 19.4 °F 34% 29.80 in 10.0 mi South 4.6 mph - N/A   Scattered Clouds
3:15 AM 46.4 °F 44.3 °F 23.0 °F 40% 29.81 in 10.0 mi SSE 4.6 mph - N/A   Mostly Cloudy
3:35 AM 42.8 °F 40.1 °F 23.0 °F 46% 29.80 in 10.0 mi SSE 4.6 mph - N/A   Overcast
3:55 AM 42.8 °F 40.1 °F 21.2 °F 42% 29.79 in 10.0 mi South 4.6 mph - N/A   Mostly Cloudy
4:15 AM 46.4 °F 44.3 °F 19.4 °F 34% 29.79 in 10.0 mi ESE 4.6 mph - N/A   Scattered Clouds
4:35 AM 46.4 °F 42.4 °F 21.2 °F 37% 29.78 in 10.0 mi SE 8.1 mph - N/A   Mostly Cloudy
4:55 AM 50.0 °F - 21.2 °F 32% 29.78 in 10.0 mi SSE 9.2 mph - N/A   Mostly Cloudy
5:15 AM 48.2 °F - 24.8 °F 40% 29.77 in 10.0 mi South 6.9 mph - N/A   Partly Cloudy
5:35 AM 48.2 °F - 23.0 °F 37% 29.78 in 10.0 mi South 8.1 mph - N/A   Clear
5:55 AM 48.2 °F - 21.2 °F 34% 29.78 in 10.0 mi South 11.5 mph - N/A   Clear
6:15 AM 50.0 °F - 21.2 °F 32% 29.76 in 10.0 mi SSE 12.7 mph - N/A   Clear
6:35 AM 51.8 °F - 23.0 °F 33% 29.76 in 10.0 mi South 12.7 mph - N/A   Clear
6:55 AM 53.6 °F - 24.8 °F 33% 29.78 in 10.0 mi South 16.1 mph - N/A   Clear
7:15 AM 51.8 °F - 30.2 °F 44% 29.78 in 10.0 mi SSE 17.3 mph 23.0 mph N/A Rain Light Rain
7:35 AM 50.0 °F - 35.6 °F 58% 29.79 in 9.0 mi SSE 10.4 mph 20.7 mph N/A Rain Light Rain
7:55 AM 50.0 °F - 37.4 °F 62% 29.80 in 10.0 mi SSE 12.7 mph - N/A Rain Light Rain
8:15 AM 48.2 °F - 39.2 °F 71% 29.80 in 10.0 mi SSE 10.4 mph - N/A Rain Light Rain
8:35 AM 48.2 °F - 39.2 °F 71% 29.80 in 10.0 mi South 11.5 mph - N/A Rain Light Rain
8:55 AM 50.0 °F - 39.2 °F 66% 29.80 in 10.0 mi South 15.0 mph 23.0 mph N/A Rain Light Rain
9:15 AM 50.0 °F - 39.2 °F 66% 29.81 in 10.0 mi SSE 16.1 mph 21.9 mph N/A   Partly Cloudy
9:35 AM 50.0 °F - 39.2 °F 66% 29.81 in 10.0 mi SSE 19.6 mph 26.5 mph N/A   Clear
9:55 AM 51.8 °F - 39.2 °F 62% 29.81 in 10.0 mi SSE 23.0 mph 28.8 mph N/A   Clear
10:15 AM 51.8 °F - 39.2 °F 62% 29.81 in 10.0 mi SSE 17.3 mph 23.0 mph N/A   Clear
10:35 AM 51.8 °F - 37.4 °F 58% 29.81 in 10.0 mi SSE 13.8 mph 20.7 mph N/A   Partly Cloudy
10:55 AM 53.6 °F - 37.4 °F 54% 29.79 in 10.0 mi SSE 18.4 mph 25.3 mph N/A   Clear
11:15 AM 53.6 °F - 37.4 °F 54% 29.77 in 10.0 mi SSE 15.0 mph 23.0 mph N/A   Clear
11:35 AM 53.6 °F - 37.4 °F 54% 29.76 in 10.0 mi South 16.1 mph 23.0 mph N/A   Clear
11:55 AM 53.6 °F - 37.4 °F 54% 29.74 in 10.0 mi SSE 19.6 mph 23.0 mph N/A   Clear
12:15 PM 53.6 °F - 37.4 °F 54% 29.73 in 10.0 mi South 16.1 mph 20.7 mph N/A   Clear
12:35 PM 53.6 °F - 35.6 °F 51% 29.72 in 10.0 mi South 17.3 mph - N/A   Scattered Clouds
12:55 PM 53.6 °F - 37.4 °F 54% 29.71 in 10.0 mi South 19.6 mph 23.0 mph N/A   Mostly Cloudy
1:15 PM 55.4 °F - 37.4 °F 51% 29.70 in 10.0 mi SSE 17.3 mph 23.0 mph N/A   Overcast
1:35 PM 53.6 °F - 37.4 °F 54% 29.69 in 10.0 mi SSE 17.3 mph 21.9 mph N/A   Overcast
1:55 PM 55.4 °F - 39.2 °F 54% 29.67 in 10.0 mi SSE 16.1 mph 20.7 mph N/A   Mostly Cloudy
2:15 PM 55.4 °F - 37.4 °F 51% 29.66 in 10.0 mi SSE 16.1 mph - N/A   Partly Cloudy
2:35 PM 55.4 °F - 37.4 °F 51% 29.67 in 10.0 mi South 13.8 mph - N/A   Partly Cloudy
2:55 PM 55.4 °F - 37.4 °F 51% 29.67 in 10.0 mi South 15.0 mph - N/A   Scattered Clouds
3:15 PM 55.4 °F - 37.4 °F 51% 29.66 in 10.0 mi South 12.7 mph - N/A   Clear
3:35 PM 53.6 °F - 37.4 °F 54% 29.67 in 10.0 mi South 12.7 mph 17.3 mph N/A   Scattered Clouds
3:55 PM 53.6 °F - 39.2 °F 58% 29.68 in 10.0 mi SW 5.8 mph - N/A   Overcast
4:15 PM 48.2 °F - 39.2 °F 71% 29.68 in 5.0 mi WNW 23.0 mph 28.8 mph N/A   Haze
4:35 PM 44.6 °F 38.8 °F 39.2 °F 81% 29.71 in 1.5 mi West 11.5 mph - 0.04 in   Haze
4:55 PM 44.6 °F 42.2 °F 41.0 °F 87% 29.71 in 2.5 mi SSW 4.6 mph - 0.10 in   Overcast
5:15 PM 44.6 °F 36.4 °F 41.0 °F 87% 29.69 in 3.0 mi ESE 20.7 mph - 0.03 in Rain Rain
5:35 PM 44.6 °F 38.1 °F 42.8 °F 93% 29.70 in 10.0 mi East 13.8 mph - 0.03 in Rain Light Rain
5:55 PM 44.6 °F 39.7 °F 41.0 °F 87% 29.70 in 10.0 mi ENE 9.2 mph - 0.03 in   Overcast
6:15 PM 46.4 °F 42.9 °F 41.0 °F 81% 29.69 in 10.0 mi East 6.9 mph - N/A Rain Light Rain
6:35 PM 46.4 °F 44.3 °F 41.0 °F 81% 29.69 in 10.0 mi SSE 4.6 mph - N/A   Mostly Cloudy
6:55 PM 46.4 °F 43.5 °F 41.0 °F 81% 29.69 in 10.0 mi SSE 5.8 mph - N/A   Overcast
7:15 PM 44.6 °F 40.7 °F 41.0 °F 87% 29.69 in 10.0 mi SSE 6.9 mph - N/A   Mostly Cloudy
7:35 PM 44.6 °F 42.2 °F 41.0 °F 87% 29.69 in 10.0 mi South 4.6 mph - N/A   Overcast
7:55 PM 44.6 °F 41.4 °F 41.0 °F 87% 29.69 in 10.0 mi SSW 5.8 mph - N/A   Overcast
8:15 PM 44.6 °F 42.2 °F 42.8 °F 93% 29.69 in 10.0 mi South 4.6 mph - N/A   Overcast
8:35 PM 44.6 °F 40.7 °F 42.8 °F 93% 29.69 in 10.0 mi South 6.9 mph - N/A   Overcast
8:55 PM 44.6 °F 40.7 °F 42.8 °F 93% 29.69 in 10.0 mi SSE 6.9 mph - N/A   Mostly Cloudy
9:15 PM 42.8 °F 41.1 °F 41.0 °F 93% 29.68 in 10.0 mi SSE 3.5 mph - N/A   Scattered Clouds
9:35 PM 44.6 °F 41.4 °F 41.0 °F 87% 29.69 in 10.0 mi SW 5.8 mph - N/A   Mostly Cloudy
9:55 PM 42.8 °F 39.3 °F 41.0 °F 93% 29.68 in 10.0 mi SSW 5.8 mph - N/A   Mostly Cloudy
10:15 PM 42.8 °F 38.0 °F 41.0 °F 93% 29.69 in 10.0 mi South 8.1 mph - N/A   Mostly Cloudy
10:35 PM 42.8 °F 38.0 °F 42.8 °F 100% 29.68 in 10.0 mi South 8.1 mph - N/A   Mostly Cloudy
10:55 PM 42.8 °F 38.0 °F 42.8 °F 100% 29.68 in 10.0 mi South 8.1 mph - N/A   Mostly Cloudy
11:15 PM 42.8 °F 37.5 °F 42.8 °F 100% 29.67 in 10.0 mi SSW 9.2 mph - N/A   Overcast
11:35 PM 42.8 °F 37.0 °F 41.0 °F 93% 29.67 in 4.0 mi SSE 10.4 mph 17.3 mph 0.05 in Rain , Thunderstorm Light Rain
11:55 PM 41.0 °F 34.3 °F 41.0 °F 100% 29.68 in 10.0 mi SE 11.5 mph 20.7 mph 0.05 in Thunderstorm Overcast